Regional Weather Roundup
Issued by NWS

Home | Current Version | Previous Version | Text Only | Print | Product List | Glossary Off
Versions: 1 2 3 4 5 6 7 8 9 10 11 12 13 14 15 16 17 18 19 20 21 22 23 24 25 26 27 28 29 30 31 32 33 34 35 36 37 38 39 40 41 42 43 44 45 46 47 48 49 50

000
ASUS45 KABQ 240801
RWRNM
WEATHER ROUNDUP FOR NEW MEXICO
NATIONAL WEATHER SERVICE ALBUQUERQUE NM
200 AM MDT THU APR 24 2014

NOTE: "FAIR" MEANS FEW OR NO CLOUDS BELOW 12,000 FEET AGL WITH NO
       SIGNIFICANT WEATHER OR OBSTRUCTIONS TO VISION.

      THIS PRODUCT IS RELEASED AS TWO VERSIONS.  ONE VERSION NEAR
      THE TOP OF THE HOUR CONTAINING PRELIMINARY DATA FROM ALBUQUERQUE
      AND OTHER STATIONS.  A FINAL VERSION WITH ADDITIONAL DATA IS
      ISSUED ABOUT 10 MINUTES AFTER THE HOUR.

NMZ501-503-504-510>518-240900-
NORTHWEST PLATEAU/NORTHCENTRAL MOUNTAINS

CITY           SKY/WX    TMP DP  RH WIND       PRES   REMARKS
FARMINGTON     CLEAR     41   9  26 W8        30.03R
SANTA FE       CLEAR     43   8  23 NW13      29.99R
TAOS           CLEAR     36  10  35 N10       30.02R WCI  28
ANGEL FIRE     FAIR      34  13  42 W9        30.01R WCI  26

$$
NMZ402-403-502-505>509-240900-
WESTCENTRAL MOUNTAINS/SOUTHWEST MOUNTAINS

CITY           SKY/WX    TMP DP  RH WIND       PRES   REMARKS
GALLUP         PTCLDY    29   5  36 E5        30.08R WCI  24
SILVER CITY    CLEAR     46   9  21 NW8       30.04S

$$
NMZ407-409-411-412-240900-
SOUTHERN DESERTS

CITY           SKY/WX    TMP DP  RH WIND       PRES   REMARKS
DEMING         CLEAR     54  12  18 W8        29.97R
ALAMOGORDO     CLEAR     57  16  19 NE10      29.95R
T OR C         CLEAR     56  12  17 NW8       29.97R

$$
NMZ519>523-240900-
CENTRAL VALLEYS/CENTRAL HIGHLANDS

CITY           SKY/WX    TMP DP  RH WIND       PRES   REMARKS
ALBUQUERQUE    CLEAR     52  10  18 NW14      30.00R
DOUBLE EAGLE   CLEAR     45  10  24 W6        30.01R
MORIARTY ARPT  FAIR      41  11  29 N9        30.01R
CLINES CORNERS CLEAR     42  10  27 W23       29.95F
BELEN          FAIR      48  13  24 N3        30.00S
SOCORRO        NOT AVBL

$$
NMZ524>526-539-540-240900-
SOUTHCENTRAL MOUNTAINS

CITY           SKY/WX    TMP DP  RH WIND       PRES   REMARKS
RUIDOSO        NOT AVBL

$$
NMZ527>531-240900-
NORTHEAST HIGHLANDS/NORTHEAST PLAINS

CITY           SKY/WX    TMP DP  RH WIND       PRES   REMARKS
LAS VEGAS      CLEAR     42   8  24 NW10      29.95R
RATON          PTCLDY    41  34  76 NE20G26   29.93R
CLAYTON        CLOUDY    48  31  51 N24G36    29.88S HAZE

$$
NMZ532>537-240900-
EASTCENTRAL PLAINS

CITY           SKY/WX    TMP DP  RH WIND       PRES   REMARKS
TUCUMCARI      CLEAR     60  18  19 NW14      29.81R
CANNON AFB     NOT AVBL
CLOVIS AIRPORT PTCLDY    57  18  21 W14       29.84S

$$
NMZ028-029-538-240900-
SOUTHEAST PLAINS

CITY           SKY/WX    TMP DP  RH WIND       PRES   REMARKS
ROSWELL        CLEAR     64  14  14 W7        29.84R
ARTESIA        CLEAR     59  18  20 NW8       29.85R
CARLSBAD       CLEAR     61  29  29 NW10      29.83R
HOBBS          CLEAR     63  23  22 NW14      29.84R


$$



USA.gov is the U.S. government's official web portal to all federal, state and local government web resources and services.